Location: Berg
(47.2344°N, 9.5296°E)
Time: 12:39:47
(UTC+00:00)

COSMO-SKYMED 1 - Pass Details

Date: 24 January 2021
Orbit: 621 x 623 km, 97.9° (Epoch: 07 March)

Event Time Altitude Azimuth Distance (km) Brightness Sun altitude
Rises 17:30:48 0° 14° (NNE) 2,917 5.7 -13.3°
Reaches altitude 10° 17:33:00 10° 15° (NNE) 2,005 4.9 -13.7°
Maximum altitude 17:37:22 82° 102° (ESE) 636 2.5 -14.4°
Drops below altitude 10° 17:41:43 10° 192° (SSW) 1,987 5.5 -15.1°
Sets 17:43:53 0° 193° (SSW) 2,889 6.3 -15.5°
